Location: Unspecified
(0.0000°N, 0.0000°E)
Time: 09:48:53
(UTC+00:00)

ATLAS 5 CENTAUR DEB - Pass Details

Date: 19 February 2026
Orbit: 8295 x 34941 km, 19.8° (Epoch: 28 February)

Event Time Altitude Azimuth Distance (km) Brightness Sun altitude
Rises 15:53:40 0° 278° (W) 13,711 ? 34.3°
Reaches altitude 10° 16:02:02 10° 274° (W) 13,214 ? 32.2°
Maximum altitude 02:22:51 79° 315° (NW) 21,197 ? -56.0°
Drops below altitude 10° 04:11:39 10° 67° (ENE) 12,946 ? -29.9°
Sets 04:19:48 0° 70° (ENE) 13,536 ? -27.9°
